FOX-1D (AO-92) (43137 NORAD) Tracking and Keplerian Element Data

This shows tracking and keplerian element data for the satellite.

Feedback or suggestion? Click here.




ElementValue
Catalog43137
NameFOX-1D (AO-92)
Epoch Orbit4726
Epoch Day322.90518687
Epoch Year2018
RAAN25.901
Inclination97.5162
Eccentricity0.000784
Argument of Perigee280.735
Mean Anonmoly79.3003
Mean Motion15.23030708
Decay Rate1.068E-05
L11 43137U 18004AC 18322.90518687 .00001068 00000-0 48441-4 0 9991
L22 43137 97.5162 25.9010 0007840 280.7350 79.3003 15.23030708 47261

Live tracking and technical data element details for FOX-1D (AO-92) (NORAD 43137). FOX-1D (AO-92) can be tracked NOW for your location showing map with azimuth and elevation plus other details from your city location.

Track the satellite on the map from your city or location and see movement details for azimuth, elevation, latitude, longitude, range, height, and movement on the map or in text.







IsCatalogInMostPopularTable: catalog: 43137, numindb: 671
Update: records affected: 1



GetName: 43137 FOX-1D (AO-92)

Hit Count: updated at: Mon, 19 Nov 2018 12:15:31 GMT